RH
49 38 34 34 34 36 37 36 36 36 37 38 40 44 47 48 50 53 59 61 59 56 54 55 57 58 58 58 58 60 62 63 66 72 79 70 65 61 57 51 47 44 43 43 44 45 48 52 62 74 80 82 84 85 83 80 78 78 82 86 85 79 70 62 57 54 51 50 49 48 48 49 51 52 53 51 50 47 44 42 40 39 39 42 45 50 55 63 73 83 92 97 99 99 99 99 98 96 93 94 95 95 95
39 35 33 34 36 37 37 38 38 39 40 42 44 46 50 52 56 61 69 68 64 61 62 61 60 58 58 58 60 62 63 64 67 71 76 70 66 62 56 50 46 44 44 44 45 47 51 54 62 74 82 82 82 83 84 82 79 79 84 87 82 73 65 61 58 55 54 53 52 52 56 60 66 71 74 74 74 72 67 64 60 53 46 44 45 48 53 58 65 74 86 91 94 96 98 99 99 97 94 94 96 97 96
36 34 33 34 36 36 37 37 38 39 40 42 44 46 50 54 58 64 72 70 65 61 58 58 58 58 60 61 62 63 64 63 65 67 70 67 65 62 55 50 47 46 46 46 47 49 54 58 67 77 88 86 86 86 88 84 79 78 88 88 81 72 65 61 58 57 56 56 56 58 63 70 78 84 88 88 89 88 86 86 85 81 75 65 56 49 47 50 57 66 76 80 80 81 85 92 96 96 93 94 96 98 98
35 33 33 34 35 35 36 37 38 40 41 42 44 47 50 53 56 60 62 60 58 57 56 59 61 62 63 65 67 68 71 71 70 71 74 66 65 63 56 52 50 50 50 50 50 51 53 63 74 84 87 85 85 87 88 87 83 82 88 87 80 72 66 62 60 58 58 58 60 63 69 77 83 87 90 89 88 88 89 91 93 96 96 94 87 78 68 60 58 61 70 76 80 79 76 78 79 80 82 84 86 88 93
36 35 35 34 35 35 36 38 40 40 42 42 44 47 49 52 54 55 55 54 54 57 60 65 67 68 69 71 74 76 74 80 76 72 74 68 64 61 57 56 55 54 54 53 53 54 53 67 78 86 84 82 82 84 87 82 84 86 88 87 80 72 68 63 60 60 59 60 64 71 79 82 83 84 84 86 84 84 88 93 96 96 92 97 98 97 95 88 78 69 66 67 71 75 78 79 76 74 76 77 78 80 83
40 40 38 37 36 36 37 42 45 46 44 45 46 48 51 53 56 57 56 55 58 62 68 71 71 72 74 74 78 80 74 78 76 71 69 66 63 61 60 60 58 58 58 57 56 56 56 68 77 83 82 83 82 81 82 78 79 81 84 86 81 74 68 64 62 61 60 63 68 76 85 85 81 78 79 82 85 88 95 97 95 92 86 84 84 87 96 98 96 87 73 66 65 69 74 82 83 81 81 82 81 81 81
44 40 37 36 36 36 37 40 43 45 44 46 49 52 56 56 58 60 61 62 66 70 74 72 71 72 77 74 76 77 74 66 65 67 68 66 65 66 65 64 64 63 63 62 60 60 60 62 74 84 80 80 84 85 79 83 83 82 82 85 80 74 68 65 64 63 63 64 68 74 83 84 82 79 79 81 85 90 98 97 95 93 92 89 86 83 82 90 93 94 92 84 79 76 78 82 88 91 92 92 90 88 87
40 37 34 35 36 37 38 39 40 41 42 43 46 49 54 55 56 58 63 68 71 72 71 76 77 77 82 76 72 70 70 72 72 71 72 72 72 72 72 72 72 71 70 69 66 64 63 64 72 81 84 81 80 80 78 85 86 86 89 85 79 73 69 67 65 64 66 67 69 74 80 84 86 86 86 89 92 95 95 94 95 96 98 97 95 93 91 87 87 89 92 90 88 85 85 83 85 90 99 98 97 95 92
35 34 35 36 37 38 39 40 40 40 42 42 43 47 52 54 56 59 65 67 69 72 76 85 83 78 77 76 76 75 76 77 77 78 78 78 77 77 77 77 77 77 76 74 72 69 67 66 74 84 88 86 83 82 82 84 85 86 88 83 77 73 69 68 66 66 68 69 70 71 74 85 92 95 95 95 95 95 94 95 97 99 99 96 94 94 94 94 94 94 93 94 95 95 94 92 92 94 98 98 97 95 93
33 34 35 36 37 38 39 40 40 42 42 42 43 46 50 54 57 61 70 76 80 83 82 84 80 76 76 77 78 79 80 80 81 82 82 82 81 80 79 78 78 77 77 75 73 70 68 69 77 86 88 87 87 86 84 85 86 86 86 79 74 70 68 68 66 66 70 71 71 72 74 84 92 96 96 96 94 92 92 92 94 94 92 90 92 94 93 92 94 95 95 94 93 92 94 95 97 99 99 98 98 96 96
33 34 36 37 38 39 40 41 42 42 42 44 45 47 50 54 58 62 70 78 82 83 81 80 79 78 79 79 80 80 81 82 83 83 84 83 81 79 77 76 75 74 74 73 71 69 68 72 80 86 86 85 86 86 84 86 86 84 79 70 66 64 64 64 64 64 66 68 70 72 74 80 86 90 87 85 86 89 92 90 84 80 77 80 82 82 81 80 79 79 81 83 85 85 84 88 92 96 97 97 97 96 96
33 34 36 38 39 40 42 42 43 44 45 46 48 51 54 58 61 66 73 77 78 78 76 78 79 80 80 80 80 80 80 80 81 81 81 80 77 74 72 72 71 70 70 70 69 69 71 77 81 83 83 84 84 82 76 84 83 74 62 58 56 56 56 56 57 58 59 60 64 69 71 72 73 72 69 69 76 84 90 90 88 83 81 80 80 79 80 79 78 79 80 80 82 82 80 78 81 87 92 95 96 96 95
33 34 36 38 40 42 43 44 45 47 48 50 53 56 60 64 67 71 74 75 76 78 79 80 81 82 82 82 81 80 78 78 78 77 76 74 71 68 66 66 66 66 67 68 69 72 78 81 82 82 81 82 81 77 68 77 71 60 51 50 48 47 47 47 48 49 49 50 53 57 60 61 62 62 61 61 65 70 76 79 82 85 86 84 83 84 84 84 84 85 86 86 84 80 75 72 71 73 76 83 88 91 90
33 35 37 40 42 43 44 46 48 50 53 56 58 61 65 69 72 74 76 78 79 80 82 83 84 84 84 83 81 79 77 76 75 74 72 68 66 64 63 64 64 65 66 68 73 77 81 81 80 78 75 76 76 73 64 67 60 50 48 46 44 43 42 43 42 42 41 40 42 45 48 52 54 56 58 60 62 63 63 64 69 74 77 78 79 80 81 80 81 82 84 85 83 80 76 74 72 70 69 70 73 76 80
34 36 38 40 42 44 46 48 50 54 57 60 63 66 70 73 76 78 79 81 82 84 86 86 87 87 86 83 80 77 75 74 74 72 69 66 64 64 64 66 66 66 66 70 75 78 76 76 74 71 67 67 67 66 62 56 51 47 46 44 44 43 43 42 42 40 39 38 39 40 42 45 45 45 49 54 58 60 61 62 64 66 68 70 71 72 70 70 71 73 76 78 78 76 74 73 72 73 74 76 76 77 78
36 38 40 42 44 46 48 50 53 57 60 64 67 70 74 76 78 80 82 83 85 87 89 89 90 89 87 82 77 73 71 71 71 70 68 66 65 65 66 68 68 67 65 71 73 72 70 70 68 66 64 62 62 61 58 50 46 46 46 44 44 43 43 43 42 40 40 40 43 44 43 42 42 42 43 44 48 53 58 60 62 64 66 70 72 70 66 66 68 69 71 72 71 70 69 67 67 69 74 78 82 83 83
38 39 41 43 46 48 50 53 56 60 64 68 70 73 76 78 80 82 83 85 86 88 90 90 90 89 88 82 76 71 71 69 68 66 66 66 66 65 65 65 66 66 65 68 69 68 67 66 64 64 64 63 63 61 53 44 43 44 44 43 42 42 42 42 40 40 44 44 46 49 51 48 46 45 44 44 46 49 52 54 56 60 66 72 72 70 66 66 66 66 67 68 68 68 66 64 63 63 65 70 75 80 83
39 41 43 46 49 52 54 56 58 62 67 70 72 74 78 80 81 82 83 85 86 88 88 87 86 85 84 79 74 73 76 74 70 66 63 63 63 62 61 61 62 64 65 65 65 64 63 62 62 62 63 63 64 61 50 43 42 42 42 41 40 40 40 39 38 40 47 46 48 51 53 48 46 46 47 48 50 53 55 54 55 58 66 68 67 65 63 62 61 60 61 62 62 63 63 62 61 60 58 60 63 67 71
42 43 46 49 52 56 58 59 61 65 68 71 72 74 78 80 81 82 82 84 86 86 86 83 80 78 77 76 74 75 77 76 74 70 67 64 61 60 60 60 62 63 63 62 62 61 60 60 60 60 60 61 63 60 47 42 40 40 40 39 38 37 37 36 36 38 45 45 47 48 46 43 45 47 48 50 54 59 63 62 63 66 70 67 65 64 62 60 58 57 56 56 56 56 57 58 58 58 57 57 57 58 60
44 48 51 54 58 60 61 62 64 66 69 70 72 75 78 80 82 82 82 84 86 87 86 82 78 75 73 74 74 73 71 71 71 71 72 68 64 61 60 60 60 59 58 58 57 56 55 56 56 56 56 58 58 56 44 40 38 38 36 36 35 34 33 32 34 37 42 41 40 42 42 42 44 47 48 50 56 63 71 72 74 75 76 72 71 69 68 64 60 58 56 54 53 52 52 52 53 53 54 54 54 54 54
50 56 61 64 65 66 66 66 68 70 71 72 74 77 80 82 83 84 84 86 88 90 89 86 81 76 74 72 71 70 68 68 67 66 67 68 65 61 58 56 54 53 52 50 49 48 47 48 48 48 48 50 51 49 39 36 35 34 33 32 32 31 30 30 32 35 37 35 35 36 40 42 43 45 48 50 56 65 74 77 78 78 78 78 77 77 75 72 69 66 62 60 57 55 53 52 51 50 50 48 48 48 48
63 72 76 78 77 76 72 72 73 74 76 76 79 82 83 83 84 85 86 89 91 92 92 88 82 78 76 70 69 69 67 64 64 64 62 63 60 57 53 49 48 47 47 45 44 42 41 41 41 40 40 42 42 40 34 32 32 31 30 30 29 28 28 27 28 30 31 31 32 35 38 40 43 45 46 48 56 66 74 77 78 79 78 79 80 80 78 80 80 76 74 69 64 60 57 55 54 52 49 46 43 42 42
77 85 88 89 87 84 80 80 80 80 78 80 86 92 90 87 86 86 89 92 94 94 90 85 80 78 76 74 72 69 64 58 58 60 60 58 55 51 46 42 42 42 42 41 40 39 38 37 36 35 34 36 35 34 30 29 29 28 28 28 27 26 26 26 26 26 28 29 31 33 34 39 42 44 44 46 54 64 74 76 77 77 78 78 80 80 79 83 84 83 82 77 72 66 62 60 58 57 54 50 46 44 44
84 87 89 89 89 88 88 89 90 89 86 86 91 94 91 89 88 88 90 92 93 92 86 80 77 76 76 75 72 67 58 51 48 47 49 50 48 44 40 38 37 37 37 37 36 36 35 34 33 32 30 32 31 30 27 27 26 26 26 26 25 24 24 24 24 25 26 28 29 30 32 38 40 40 40 42 50 60 73 74 74 74 78 76 76 78 80 81 82 82 82 80 76 72 68 66 65 64 62 58 56 53 52
86 87 88 89 90 90 90 92 94 96 94 93 92 92 88 88 87 87 88 88 88 87 84 81 78 76 74 73 70 63 54 45 40 36 36 37 38 38 36 35 34 34 34 34 34 34 33 32 31 30 28 30 29 27 24 24 24 24 24 24 24 24 23 23 24 24 26 26 28 29 31 34 34 35 36 38 43 52 65 71 73 74 76 77 76 76 76 78 79 80 79 78 77 75 72 71 71 70 68 66 64 62 60
88 88 88 88 90 91 89 90 92 94 92 92 90 89 87 86 84 84 84 84 84 83 82 82 80 76 72 70 66 60 51 42 36 31 30 30 31 32 33 33 34 34 34 34 33 33 32 30 29 28 27 29 28 26 23 22 22 23 23 23 22 23 23 23 23 24 24 26 26 27 28 30 30 31 34 35 39 46 58 66 70 70 71 73 72 70 69 70 73 74 75 74 74 72 71 71 71 72 72 72 72 71 68
89 88 86 87 89 90 89 89 89 88 87 87 88 88 87 85 83 82 83 84 85 85 85 85 83 78 73 68 63 57 48 40 34 30 29 29 30 32 33 33 34 34 34 33 32 31 30 28 27 27 27 28 28 26 22 21 21 22 22 22 22 22 22 23 23 24 24 24 25 26 26 26 27 28 29 32 39 46 54 62 63 62 62 62 62 61 61 62 64 66 66 67 67 67 67 68 69 70 72 74 74 72 69
86 82 84 87 88 88 88 87 86 85 85 86 86 86 85 83 82 82 86 88 90 90 89 87 83 78 72 68 62 55 45 38 33 30 30 31 32 33 34 34 34 34 33 32 30 29 27 26 26 26 26 27 28 26 22 20 20 21 21 22 22 22 22 23 24 24 24 24 24 24 25 25 26 26 26 30 37 43 46 50 52 52 52 53 54 54 53 52 52 54 56 59 60 61 61 62 64 66 67 67 66 64 63
80 78 85 88 88 87 87 86 84 84 84 86 85 83 80 80 82 86 90 92 94 93 90 85 79 74 69 65 60 52 42 36 32 31 31 32 34 35 35 35 34 32 31 30 28 27 26 25 24 25 26 26 28 28 24 20 20 20 21 22 22 22 23 23 24 24 24 24 24 24 24 24 24 25 25 26 30 34 35 39 40 39 40 41 42 43 42 42 42 44 48 49 50 50 52 53 54 55 56 56 56 57 57
78 79 86 88 88 87 86 84 83 84 86 86 84 82 80 80 84 90 95 95 94 90 87 82 76 68 63 60 54 46 38 34 32 32 33 34 35 35 35 34 32 30 29 27 26 25 24 24 24 24 24 25 27 28 26 22 20 20 21 22 22 23 23 23 24 24 24 25 25 25 25 25 25 26 26 26 27 28 29 30 31 31 31 31 32 33 34 34 36 37 39 40 40 42 42 44 44 46 47 49 50 51 52
79 82 87 87 87 86 85 84 84 85 86 85 83 82 80 83 87 92 94 94 92 88 86 81 74 66 58 52 45 39 33 32 32 33 35 36 36 35 34 32 30 28 27 26 24 23 22 22 22 23 23 24 26 26 27 23 20 20 21 22 22 22 23 23 24 24 24 24 25 25 26 26 26 26 26 26 26 27 28 28 28 29 28 28 29 30 32 31 32 32 33 34 36 37 38 39 40 40 42 44 45 45 45
81 86 89 88 87 86 84 83 83 83 83 82 82 82 83 85 88 90 92 92 92 89 85 79 72 64 55 46 39 34 31 32 33 35 36 36 35 33 31 29 28 26 25 24 24 23 22 21 22 22 23 24 24 26 28 26 23 20 20 21 22 22 22 22 22 23 24 24 24 24 25 26 26 26 26 26 26 27 27 27 26 26 26 26 27 28 29 29 29 30 30 31 32 34 35 36 38 39 40 40 40 40 40
85 90 89 88 87 85 85 83 82 81 82 82 82 84 86 87 89 90 92 92 90 84 77 71 64 57 48 40 35 32 32 34 35 36 36 34 33 31 29 27 26 24 24 24 24 24 22 22 22 23 23 24 24 26 29 29 26 22 20 20 20 21 21 21 21 22 22 23 24 24 24 24 25 26 26 26 26 26 25 24 24 23 23 23 24 24 24 24 24 24 24 26 26 28 29 30 32 33 34 34 35 36 36
88 90 88 87 86 85 86 85 83 81 80 81 83 85 87 89 90 92 94 92 86 78 69 61 54 46 39 35 33 33 34 35 36 35 34 32 30 28 27 26 24 23 23 24 24 24 23 23 23 23 23 23 24 24 26 27 26 22 20 19 19 20 20 20 20 21 21 22 23 23 24 24 24 24 23 23 22 21 20 20 19 18 17 16 16 16 16 16 15 16 16 16 17 18 19 20 22 23 24 25 26 27 28
90 89 87 86 86 86 87 86 85 83 82 83 85 87 89 90 92 94 94 89 80 70 58 49 42 37 33 33 34 35 36 36 35 34 32 30 29 27 26 24 23 23 23 23 23 24 23 24 24 24 23 23 23 23 23 23 23 22 20 18 18 18 18 19 20 20 21 22 22 23 23 22 22 20 20 18 17 16 15 14 13 12 11 10 10 10 10 9 8 8 8 8 8 9 10 10 11 12 13 14 14 16 16
89 87 86 85 86 88 87 86 86 86 86 87 88 90 92 93 94 94 92 83 72 60 46 39 35 33 33 34 35 36 36 35 33 32 30 28 28 26 26 24 23 22 23 23 23 23 23 24 24 23 23 22 22 21 21 20 20 20 20 19 18 18 18 18 19 20 21 22 22 21 20 19 18 16 15 14 12 11 10 10 10 8 8 8 8 8 7 7 7 6 6 6 6 6 6 6 6 6 6 7 7 7 7
90 86 84 85 87 88 88 88 87 87 88 89 90 92 93 94 94 92 86 74 60 47 37 34 33 34 35 36 36 35 34 33 31 30 28 27 26 26 25 24 24 23 23 23 23 23 23 23 23 22 21 20 20 19 19 18 18 18 20 20 19 18 18 17 18 19 21 21 21 19 17 16 14 12 11 10 10 9 8 8 8 8 8 8 7 7 7 7 7 7 6 6 6 6 6 6 6 6 6 6 5 5 5
90 85 82 85 87 88 89 89 88 87 88 90 92 93 94 93 90 83 72 57 44 36 33 34 35 36 36 36 35 34 32 30 29 28 27 26 26 26 26 24 24 24 23 23 22 22 22 22 21 20 19 18 18 18 17 16 16 17 18 19 19 19 18 18 19 20 20 20 18 16 14 12 11 10 9 8 8 8 8 8 8 8 8 8 8 8 7 7 7 7 7 7 7 7 7 7 6 6 6 6 6 6 6
87 82 81 84 87 90 92 90 89 87 88 90 92 92 91 87 77 65 51 40 35 33 34 35 36 36 36 34 33 32 30 28 27 26 26 26 26 25 25 25 24 24 23 22 22 22 21 20 20 19 18 17 16 16 16 15 16 16 17 17 18 18 18 20 20 21 20 17 14 12 11 10 9 8 8 8 8 8 8 8 8 8 8 8 8 8 8 8 8 8 7 7 7 7 7 7 7 7 7 7 7 7 6
84 81 82 86 90 94 95 92 89 88 89 92 90 87 79 69 57 44 35 34 34 36 38 37 35 34 34 32 31 30 28 27 26 26 26 26 26 25 24 25 24 24 23 22 21 20 19 19 18 18 17 16 15 14 14 14 14 14 15 16 17 18 19 21 21 20 18 14 11 10 8 8 8 8 8 8 8 8 8 8 8 8 8 8 8 8 8 8 8 8 8 7 7 7 7 7 7 7 7 7 6 6 6
83 83 85 90 95 97 96 92 90 90 92 91 84 72 57 46 38 34 34 36 38 38 38 36 34 33 32 31 30 30 28 27 26 26 26 26 26 25 24 24 24 24 22 21 20 19 18 17 16 16 16 14 14 13 13 13 13 14 14 16 17 18 20 21 20 17 14 11 10 8 8 8 8 8 9 9 9 9 9 8 8 8 8 8 8 8 8 8 8 8 7 7 7 7 7 7 7 6 6 6 6 6 6
86 88 92 96 98 97 95 92 92 92 92 80 64 49 37 35 35 37 38 38 38 37 35 34 33 32 31 30 30 29 28 27 26 26 26 26 26 25 24 24 24 23 21 20 18 17 16 14 14 14 14 13 12 12 12 12 13 14 16 17 18 19 20 18 16 13 10 9 9 9 9 10 10 10 10 10 10 9 9 8 8 8 8 8 8 8 8 8 7 7 7 7 7 7 7 6 6 6 6 6 6 6 6
90 94 98 98 97 96 93 92 90 86 76 57 43 36 35 37 38 38 38 37 36 34 32 31 30 29 29 29 28 28 28 28 27 26 26 26 26 24 24 23 22 20 19 17 16 14 13 12 12 12 12 12 12 12 12 12 14 16 17 18 17 16 15 13 11 10 9 9 10 10 10 10 10 10 10 10 10 9 9 8 8 8 8 8 8 8 7 7 7 7 7 7 7 7 7 6 6 6 6 6 6 6 6
95 98 98 97 96 94 92 88 79 66 50 39 36 36 38 39 38 38 36 35 33 31 30 28 28 27 27 28 28 28 28 28 27 26 26 26 25 24 23 21 19 18 16 14 13 12 10 10 10 10 10 11 12 12 13 14 15 16 16 15 14 12 10 10 10 10 10 10 10 10 10 10 10 10 10 10 10 9 8 8 8 8 8 8 8 8 7 7 7 7 7 7 7 7 7 7 7 7 7 7 7 7 7
98 98 97 96 94 90 85 73 58 45 36 36 37 38 39 38 37 35 33 32 30 29 28 27 26 26 26 27 28 28 28 27 27 26 26 25 24 23 21 19 17 16 14 12 10 10 8 9 9 10 10 11 13 14 14 15 15 14 13 12 10 10 10 10 10 10 10 11 11 11 10 10 10 10 10 10 10 9 8 8 8 8 8 8 8 8 8 8 8 8 8 8 8 8 8 8 8 8 8 8 8 8 8
98 97 95 92 87 78 66 52 42 37 36 38 39 38 37 35 33 31 30 29 28 28 29 28 27 26 26 26 27 27 27 27 26 26 26 24 22 21 19 17 16 16 14 11 10 8 8 8 8 10 10 12 14 16 15 14 12 11 10 11 12 12 12 12 11 11 11 11 11 11 11 10 10 10 10 10 10 10 9 8 8 8 8 8 8 8 8 8 8 8 8 8 8 8 8 8 8 8 8 8 8 8 8
96 94 91 84 74 61 48 40 37 37 39 39 37 35 33 31 29 28 28 28 28 28 28 29 29 28 27 26 27 27 27 26 26 26 24 23 21 20 18 16 16 16 15 12 10 9 8 8 10 10 12 14 15 16 14 12 10 10 12 13 14 14 14 14 13 12 12 11 11 11 11 11 11 10 10 10 10 10 10 10 9 9 8 8 8 8 8 8 8 8 8 8 8 8 8 8 8 8 8 8 8 8 8
94 90 82 72 59 47 38 37 38 38 38 36 34 32 30 28 27 27 28 28 28 28 28 29 30 30 30 28 28 27 27 26 26 24 23 22 20 19 18 16 18 20 18 14 12 10 10 10 10 12 14 15 15 14 13 12 11 12 13 14 14 15 15 14 14 13 12 12 12 11 11 11 11 11 10 10 10 10 10 10 10 10 9 9 9 8 8 8 8 8 9 9 9 9 9 9 10 10 10 10 10 10 10
92 82 72 58 47 39 37 38 38 38 35 32 29 28 26 26 26 27 27 28 28 28 28 28 29 30 31 30 29 28 27 26 26 24 22 20 19 17 16 16 20 22 22 17 14 12 10 10 12 14 15 14 13 12 12 13 13 14 14 14 14 14 14 14 13 13 12 12 12 12 12 11 11 11 11 11 11 11 10 10 10 10 10 10 10 10 9 9 9 9 10 10 10 10 10 10 10 10 10 10 10 10 10
86 74 60 48 40 38 38 39 37 34 30 27 26 26 26 26 26 26 26 26 26 27 27 27 28 29 29 29 28 28 27 26 25 24 21 19 18 16 16 17 20 22 22 19 17 15 13 11 12 13 14 13 12 12 13 14 14 14 14 14 14 14 14 14 13 13 13 12 12 12 12 12 12 11 11 11 11 11 11 11 11 10 10 10 10 10 10 10 10 10 10 10 10 10 10 10 10 10 10 10 10 10 10
78 63 48 41 39 39 39 36 32 28 26 26 26 26 26 26 26 26 26 26 26 27 28 29 28 27 28 27 28 28 26 26 24 22 19 17 16 16 16 18 20 22 19 20 20 19 16 13 12 13 15 14 14 14 15 16 16 16 15 14 14 14 14 14 14 14 13 13 13 13 13 12 12 12 12 12 12 12 12 12 11 11 11 10 10 10 10 10 10 10 10 10 10 10 10 10 10 10 10 10 10 10 10
67 52 40 39 39 38 35 30 28 26 26 26 26 26 25 25 25 25 26 26 27 28 29 30 30 29 27 26 26 27 26 25 23 21 18 16 15 16 18 20 21 21 20 19 22 23 19 20 22 23 20 18 17 17 17 17 17 17 16 16 15 15 15 15 15 14 14 14 14 14 14 14 13 13 12 12 12 12 12 12 12 12 12 11 11 11 11 11 11 11 11 11 11 11 11 11 11 11 11 11 11 11 11
54 42 39 39 37 34 30 28 27 26 26 26 26 26 25 24 24 25 25 26 27 28 28 30 30 31 31 29 28 26 26 24 22 20 18 15 14 16 19 20 21 21 20 20 22 23 24 24 24 24 21 19 18 19 19 19 20 20 19 18 17 16 17 17 16 16 16 16 16 16 16 16 15 14 14 14 13 13 13 13 13 13 12 12 12 12 12 12 12 12 12 11 11 11 10 10 10 10 10 11 11 11 11
44 39 38 36 33 30 28 27 27 26 26 26 26 26 25 25 25 26 26 26 27 28 28 29 30 31 30 31 30 28 26 24 21 18 16 14 13 14 18 20 21 21 20 21 20 19 22 22 21 19 16 18 20 22 22 23 23 23 22 20 19 19 19 19 19 18 18 18 18 18 18 18 18 17 16 16 15 15 14 14 14 14 13 13 13 12 12 12 12 12 12 11 11 10 10 10 10 10 10 10 10 10 10
39 37 36 32 30 29 29 28 28 28 27 26 26 26 26 26 26 26 27 27 28 28 28 29 30 30 29 29 29 29 27 24 20 17 15 13 12 13 14 18 20 20 20 20 19 19 19 20 18 16 16 21 23 24 24 24 25 24 23 22 21 21 22 22 21 20 20 20 20 20 20 20 20 20 19 18 18 17 17 16 16 15 14 14 14 13 13 13 13 12 12 12 11 11 10 10 10 9 8 8 8 9 9
37 35 33 32 31 31 31 31 31 30 30 29 29 28 28 27 27 27 27 27 28 28 28 29 30 30 29 27 27 28 28 24 20 17 15 14 13 13 13 14 18 22 22 20 20 20 21 19 19 20 22 23 23 23 23 24 24 24 23 24 24 25 26 25 24 23 22 22 22 23 24 23 23 22 22 21 20 20 19 19 18 18 16 16 15 14 14 14 14 14 13 13 13 12 11 10 10 8 8 8 8 8 8
36 34 33 34 34 34 35 35 35 35 34 33 32 30 29 28 28 27 27 28 28 28 29 29 29 29 29 27 26 26 26 24 20 16 16 14 14 14 14 15 16 18 26 23 22 22 22 22 24 24 22 22 22 22 23 24 24 24 26 26 26 27 27 27 26 26 25 25 26 26 26 26 26 24 24 23 22 22 22 22 22 21 20 18 17 16 16 16 16 16 16 15 15 14 13 12 11 10 8 8 7 7 7
35 34 36 37 38 38 39 39 39 39 38 36 34 32 31 30 29 28 28 28 28 29 30 29 29 28 28 26 25 23 20 18 17 17 18 16 15 15 15 16 17 18 18 18 20 21 22 24 26 26 26 24 24 24 24 24 24 26 26 26 26 26 26 27 27 27 27 28 29 30 30 29 28 28 26 26 25 24 24 24 24 24 23 22 20 20 19 19 19 19 19 19 19 18 18 16 14 12 10 9 8 8 7
36 38 40 40 42 42 43 43 43 42 40 38 36 34 33 32 30 30 29 29 29 30 30 29 28 28 27 26 24 21 17 14 15 17 21 23 21 18 17 18 19 20 20 21 21 22 22 26 28 28 29 28 27 26 26 26 26 26 27 27 28 28 28 28 28 28 29 30 31 32 32 32 32 31 30 30 28 28 28 27 27 26 26 25 24 24 24 24 24 24 24 24 24 25 25 23 19 16 13 12 10 8 7
39 41 43 44 45 46 46 46 46 44 42 40 38 36 35 34 32 31 30 30 30 30 30 29 28 28 27 24 22 20 16 14 14 15 19 26 25 22 20 21 22 23 23 24 24 24 24 26 28 29 31 32 32 31 29 28 28 28 28 28 29 29 29 29 30 30 31 32 32 33 33 33 34 34 33 32 32 31 30 30 30 30 29 28 28 28 28 29 29 30 30 30 31 31 31 27 23 19 17 15 12 10 8
42 44 46 48 48 49 49 48 48 46 44 42 40 39 38 36 34 32 31 31 31 31 30 30 29 28 27 24 21 18 16 14 14 14 15 19 21 21 22 23 24 24 25 27 28 28 28 30 30 31 32 34 35 34 33 30 29 29 29 29 29 30 30 30 30 31 32 32 33 33 34 34 34 34 34 34 33 33 33 33 33 33 33 32 32 32 32 32 33 33 34 34 34 34 32 28 24 22 20 17 15 13 12
Wind_Speed
5 5 5 6 6 7 7 8 9 9 9 9 9 8 8 7 7 7 7 6 6 6 6 6 6 7 7 7 8 8 8 8 9 9 8 8 8 7 7 6 6 6 7 7 8 8 9 9 11 10 5 4 5 5 6 7 9 10 8 6 6 8 10 11 11 11 10 10 10 9 7 6 6 5 6 6 6 6 6 6 6 6 7 7 7 7 8 8 8 9 10 11 11 11 11 11 11 10 10 11 12 11 9
5 5 6 7 7 7 7 7 8 8 9 8 8 7 7 7 7 7 7 6 6 6 7 7 7 7 7 7 7 7 7 7 8 8 7 7 7 7 6 6 6 6 7 7 8 8 9 9 11 10 5 5 6 6 6 8 9 9 8 7 9 12 12 13 13 12 12 11 11 10 9 8 8 8 8 8 9 8 8 7 7 7 7 7 7 7 8 9 9 10 10 10 9 9 10 11 10 9 10 12 14 14 11
6 6 7 7 7 7 6 6 6 7 7 7 7 7 6 7 7 7 6 5 6 6 6 6 6 7 7 7 7 7 8 7 7 7 6 6 6 6 6 6 7 7 7 7 7 7 8 10 12 11 6 5 5 6 6 7 8 8 7 7 10 13 14 14 14 13 13 12 11 10 10 9 9 9 9 9 9 10 9 9 9 8 8 7 7 7 8 9 9 9 10 9 9 9 9 11 10 9 9 12 14 15 13
6 7 7 7 6 6 6 5 6 6 6 6 6 6 6 6 7 7 6 6 6 6 6 6 6 7 7 7 7 7 7 7 7 6 6 6 6 6 6 7 7 7 7 7 7 7 7 10 12 10 6 5 5 6 6 7 8 8 6 8 11 14 15 15 15 14 13 13 12 10 10 9 9 8 8 8 8 8 8 9 9 9 9 8 7 7 7 7 8 8 9 9 9 9 10 11 11 10 11 12 13 13 12
6 7 7 6 6 5 5 5 5 5 5 5 5 5 5 6 7 6 6 6 6 6 6 6 6 6 6 6 6 7 6 6 6 6 6 6 6 6 7 8 8 7 7 7 7 7 7 9 9 7 5 5 5 5 5 7 8 7 6 9 12 14 15 16 15 15 14 13 11 10 10 10 9 9 8 8 8 8 7 8 9 9 9 9 8 8 8 8 8 8 9 9 9 9 10 12 13 12 12 12 12 12 12
6 6 6 6 5 5 4 4 5 5 5 4 4 5 5 6 6 6 5 5 5 5 6 5 5 5 5 5 5 5 5 4 4 5 5 6 6 7 7 8 8 8 8 7 7 7 7 8 6 3 4 5 5 5 5 6 7 7 6 9 12 14 15 16 15 15 14 12 11 10 10 10 10 9 8 8 8 8 8 8 9 10 10 10 9 8 8 9 10 10 10 10 10 10 11 12 13 13 13 13 13 12 12
6 5 5 5 5 4 4 4 4 4 4 4 4 4 4 5 5 4 4 5 5 5 4 4 5 5 5 5 4 4 5 5 6 6 6 7 7 7 8 8 8 8 8 8 8 7 7 6 5 3 3 4 5 5 5 6 6 6 7 9 12 14 15 15 15 14 13 12 11 10 10 10 10 10 9 9 8 8 8 9 9 10 11 11 11 10 9 10 11 11 12 12 12 12 13 14 14 13 13 13 13 13 13
5 5 4 4 4 4 4 4 4 4 4 4 4 4 4 4 4 4 4 4 4 4 5 5 5 5 5 5 6 6 6 7 7 7 7 8 8 8 8 8 8 8 8 8 8 7 7 5 5 4 3 4 5 6 5 5 5 5 6 10 13 14 14 14 14 13 12 11 11 10 9 9 9 10 10 9 9 9 9 9 9 9 10 11 12 12 12 12 13 13 13 14 14 15 16 16 16 15 14 14 14 14 14
5 4 4 4 4 4 4 4 4 4 4 4 4 4 3 3 3 4 5 5 5 5 5 5 5 5 5 6 7 7 7 7 8 8 8 9 9 9 9 9 9 8 8 8 8 8 7 6 6 5 4 4 5 5 4 4 4 5 7 10 13 13 13 13 12 12 11 11 10 9 8 8 8 9 9 9 9 9 9 8 8 9 9 10 12 13 13 12 12 12 12 12 13 14 16 16 16 16 15 15 16 16 16
4 4 4 3 3 3 3 4 4 4 4 4 4 4 4 4 4 4 5 5 5 5 5 4 4 6 6 7 7 7 7 8 8 9 9 9 10 10 10 9 9 8 8 8 8 8 8 7 7 6 4 4 5 5 4 3 3 5 8 10 11 12 12 12 12 11 10 10 10 9 9 8 8 8 8 9 9 9 9 8 9 10 10 11 13 14 14 13 12 12 12 12 13 14 14 13 12 12 13 14 15 16 17
4 3 3 2 2 3 3 4 4 4 4 4 5 5 5 5 4 4 4 4 4 4 4 4 5 6 7 7 8 8 8 8 8 8 8 9 9 9 9 9 9 9 8 8 8 8 8 9 8 6 5 4 5 4 4 3 3 5 8 10 10 11 11 11 11 11 10 10 10 9 9 8 8 8 9 9 10 10 10 10 9 10 10 12 13 15 16 16 16 16 15 15 15 15 15 13 11 10 10 12 13 14 16
3 2 2 2 2 2 3 4 4 4 4 4 4 4 5 5 5 5 5 4 4 5 5 6 6 7 8 8 8 8 8 8 7 7 7 7 8 8 8 9 9 9 8 8 8 9 10 9 7 5 4 4 5 5 4 4 5 7 9 9 10 10 10 10 10 11 11 10 10 10 10 9 9 9 10 10 10 11 11 11 10 10 11 12 14 15 16 17 18 17 17 16 16 16 15 14 13 12 11 10 11 12 14
2 1 1 1 2 2 3 4 4 4 4 4 4 4 4 5 5 5 5 6 6 6 6 7 7 8 8 9 8 8 8 8 7 7 6 6 7 7 7 8 8 8 8 8 9 10 9 7 5 4 4 4 5 5 5 5 6 8 9 9 9 9 10 10 10 10 11 11 11 10 10 10 10 11 11 11 11 12 12 12 11 11 11 12 14 15 16 17 18 18 17 17 17 16 16 16 15 15 14 13 12 13 14
2 1 0 1 2 3 3 4 4 4 4 4 4 4 4 5 5 6 6 6 7 7 7 7 8 8 9 9 9 8 8 8 7 6 6 6 6 6 7 7 8 8 8 9 10 9 6 4 4 4 4 4 5 6 7 7 8 9 9 9 10 10 10 10 11 11 11 12 12 11 11 11 11 11 11 12 12 13 13 13 13 13 13 14 14 15 16 16 17 16 16 16 16 17 17 17 17 17 18 17 17 16 16
1 1 1 2 2 3 4 4 4 4 3 3 3 4 4 5 6 6 6 7 7 7 7 7 8 8 8 8 8 8 8 7 7 6 5 5 6 6 7 8 8 8 9 10 8 6 4 4 5 6 7 7 7 8 9 9 9 10 10 10 11 11 11 11 12 12 13 13 12 12 12 12 11 11 11 12 12 13 14 14 15 15 15 15 16 16 17 17 16 16 15 16 16 17 18 18 19 19 19 19 18 17 17
2 2 2 2 3 4 4 4 4 3 3 3 3 4 5 5 6 6 6 7 7 7 7 6 7 7 8 8 8 8 8 7 6 6 5 5 6 7 7 8 8 8 9 9 6 4 4 5 6 8 9 9 10 10 11 11 11 11 12 12 12 12 13 13 13 14 14 13 13 12 12 12 12 12 12 12 12 13 13 14 14 14 15 15 15 16 17 17 17 17 16 17 17 18 19 19 20 20 20 19 19 18 18
3 2 2 3 4 4 4 4 4 3 2 3 3 4 4 5 5 5 6 6 6 6 6 6 6 7 8 8 9 9 10 9 8 6 5 5 6 7 7 7 8 9 10 8 6 5 5 5 7 9 9 10 11 11 13 12 12 13 13 14 14 14 14 14 15 15 14 13 12 11 11 11 11 12 12 12 12 13 13 13 14 14 13 13 14 16 17 17 17 18 18 18 18 19 19 19 20 20 20 20 19 19 19
3 3 3 4 4 4 4 4 4 3 2 2 3 3 4 4 5 5 5 5 5 5 5 6 6 7 8 8 9 9 9 10 10 9 8 7 7 7 8 8 9 10 9 8 7 6 6 7 9 10 10 10 10 11 14 14 14 15 15 15 16 16 16 16 16 15 14 13 12 11 10 11 11 11 11 12 12 12 13 13 14 13 12 13 14 16 17 17 18 18 18 18 18 19 19 19 20 20 20 20 20 20 19
3 3 3 4 5 5 5 4 4 3 2 2 3 3 4 4 4 4 4 4 4 5 5 6 7 8 8 8 8 7 5 5 7 9 10 10 9 8 9 9 10 9 8 8 8 8 7 8 10 11 11 10 9 11 15 16 16 16 17 17 17 17 17 16 16 15 13 12 11 11 11 12 11 11 11 11 11 11 12 13 12 12 12 13 15 16 16 17 17 17 18 18 18 18 19 19 20 20 20 21 21 20 20
2 3 4 5 5 5 5 4 4 4 3 2 3 3 3 4 4 4 4 4 5 5 6 7 9 10 10 9 7 5 4 4 6 8 9 10 10 10 10 10 9 9 9 8 9 9 10 10 11 13 13 11 9 12 16 17 17 18 18 18 18 18 17 17 16 14 13 13 12 12 12 12 11 11 11 10 10 9 10 11 11 10 12 13 14 15 16 16 17 17 17 17 17 17 18 18 19 19 20 20 21 21 21
2 3 5 5 6 6 6 5 5 5 4 3 3 4 4 4 4 4 4 5 5 6 7 8 10 10 9 8 6 6 6 7 8 8 9 9 9 10 10 9 9 10 10 10 11 11 12 13 13 14 15 12 11 14 18 18 19 19 19 19 18 18 18 17 15 14 14 13 13 12 12 12 12 11 11 10 9 8 8 9 9 9 10 11 12 13 14 15 15 16 16 16 16 16 16 17 18 19 19 20 20 20 20
2 3 5 6 6 6 6 6 6 5 4 4 5 5 5 5 5 4 5 5 6 8 9 9 9 8 6 6 6 7 7 8 8 8 9 9 9 10 10 10 10 11 12 13 13 14 14 15 16 16 16 13 14 17 19 20 19 20 19 19 19 18 17 16 15 14 14 13 13 12 12 12 12 11 11 10 8 7 7 8 8 9 9 10 10 11 11 11 12 13 14 14 15 15 15 16 17 18 18 19 20 20 20
2 0 2 3 4 6 6 5 5 5 5 5 5 4 4 6 7 6 5 5 6 8 9 9 9 8 7 6 7 7 8 8 8 8 8 9 10 10 11 11 12 13 13 14 15 16 16 17 18 18 18 15 17 20 21 20 20 20 20 19 19 18 17 16 15 14 14 13 13 12 12 11 11 11 11 10 9 7 8 9 9 10 9 10 9 9 8 8 9 10 12 13 14 14 14 15 15 16 17 18 19 19 19
4 4 4 3 3 4 3 3 3 3 4 4 3 2 1 3 5 6 5 5 5 6 7 8 9 9 8 7 7 7 8 8 8 8 8 9 10 12 12 13 14 14 15 16 16 17 18 19 19 20 19 17 19 22 22 21 20 20 20 19 18 17 16 15 14 14 13 13 13 12 12 11 11 11 11 10 9 9 9 10 11 10 9 10 10 9 9 10 10 11 11 13 13 14 14 14 14 15 15 16 17 17 17
5 5 5 4 3 2 1 1 1 1 1 1 2 3 3 4 4 5 5 5 5 6 7 8 9 10 9 9 8 8 8 9 9 9 9 10 11 12 14 15 15 16 17 17 18 19 19 20 21 21 19 18 20 23 22 21 20 20 19 19 18 17 16 14 14 13 13 12 12 12 12 12 12 11 11 11 10 10 10 12 12 12 11 11 11 11 11 12 12 12 13 14 14 14 14 13 13 14 15 15 16 17 17
6 7 7 5 4 3 4 4 4 4 4 4 4 4 4 5 5 4 4 5 6 7 8 9 10 10 10 10 9 9 9 9 10 10 10 11 12 13 15 16 17 18 18 19 20 20 20 20 21 20 19 17 20 23 23 21 20 19 19 18 17 16 15 14 13 12 12 12 12 12 12 12 12 12 11 11 11 11 11 11 11 12 12 11 11 12 13 13 13 14 14 15 15 15 15 15 14 15 15 15 16 17 17
9 10 8 6 5 4 5 5 6 6 6 5 5 4 4 5 5 4 5 6 7 8 9 10 11 11 11 11 11 10 10 10 11 11 12 12 13 14 15 17 18 19 20 20 21 21 21 20 20 18 17 16 18 22 23 21 20 18 18 17 16 15 14 13 12 12 12 12 12 12 12 12 12 11 11 11 11 11 12 10 11 12 12 12 13 14 14 14 15 15 16 16 17 17 17 17 16 16 16 16 17 18 18
11 10 8 6 6 5 5 6 7 6 6 5 4 4 4 5 5 5 5 6 7 8 9 10 11 11 11 11 11 11 11 11 12 12 13 14 15 16 17 18 19 20 21 21 21 22 21 21 19 17 15 15 17 21 23 21 19 18 17 16 15 14 13 12 12 11 11 11 12 12 12 12 12 11 11 11 11 11 12 13 14 14 13 14 14 15 16 16 16 17 17 18 18 18 18 18 18 18 18 18 18 19 19
12 10 7 6 5 5 6 7 7 6 5 4 4 4 4 5 5 5 6 6 7 9 10 11 11 11 11 11 11 12 12 13 14 14 15 16 17 17 18 19 20 20 21 21 21 21 21 20 18 16 14 14 15 18 22 21 19 17 16 15 14 14 13 12 11 11 11 11 11 12 12 12 12 11 11 11 12 12 13 14 15 15 16 16 16 16 17 18 18 18 18 18 19 19 19 19 19 19 19 20 20 20 21
11 9 7 5 5 5 6 7 6 6 5 5 4 4 4 4 5 6 7 7 8 9 11 12 12 11 10 10 11 12 13 14 15 16 17 17 18 19 19 20 20 21 21 21 22 21 20 19 18 16 15 13 12 15 20 21 19 16 15 14 14 13 12 12 11 11 11 11 11 12 12 12 12 12 11 12 12 14 15 16 16 17 17 17 17 18 19 19 19 19 19 19 20 20 20 20 20 21 21 21 21 22 22
10 8 6 6 6 7 7 6 6 6 6 4 4 4 4 5 6 7 8 8 9 10 11 12 12 12 11 11 12 13 13 15 16 17 18 19 20 20 20 20 21 21 21 21 22 21 20 19 17 16 15 13 12 13 17 20 19 16 14 13 13 13 12 12 11 11 11 11 11 12 12 12 12 12 12 12 13 14 15 16 17 17 17 17 18 18 19 19 19 20 20 20 20 20 20 21 21 21 21 21 22 22 23
10 7 6 6 7 7 7 5 5 5 4 3 3 4 5 5 7 8 9 9 10 10 11 11 11 12 12 12 13 13 14 15 17 18 20 21 21 21 21 21 21 21 20 20 20 21 20 19 17 16 14 13 12 11 13 17 18 16 14 13 13 13 12 12 11 11 11 11 11 12 12 12 12 12 12 12 13 14 15 16 17 17 17 17 17 18 19 19 20 20 20 20 20 20 21 21 21 21 22 22 23 23 24
9 7 6 7 8 8 6 5 4 3 3 2 3 4 5 6 8 9 10 10 11 11 11 11 11 11 12 13 14 15 16 16 17 18 20 21 22 22 22 22 21 20 20 19 18 19 19 18 16 15 14 12 10 8 8 12 16 18 15 14 13 13 12 12 12 11 11 11 11 12 12 12 12 13 13 13 13 14 15 16 16 16 16 17 17 18 19 19 20 20 20 20 21 21 21 21 22 22 23 24 24 25 25
8 7 7 8 9 7 6 4 3 2 2 3 4 5 6 7 8 9 10 11 11 11 11 11 11 12 13 14 15 16 17 18 18 19 19 21 22 23 22 22 21 20 19 17 16 17 17 17 16 15 14 12 10 8 8 11 15 18 17 15 13 13 12 12 12 12 11 11 11 12 12 12 13 13 13 14 14 15 16 16 16 17 17 17 17 18 19 19 20 20 20 21 21 21 22 22 23 23 24 24 25 25 26
8 8 9 9 8 7 5 4 3 3 3 4 5 6 7 8 9 10 10 11 11 11 11 11 11 13 14 15 16 17 18 18 19 20 20 20 21 22 22 21 20 19 18 16 16 16 16 15 15 14 13 12 11 11 11 12 14 17 18 16 14 13 12 12 12 11 11 11 11 12 12 13 13 14 14 15 15 16 16 17 17 17 18 18 18 19 19 20 20 20 21 21 21 22 22 23 23 24 25 25 26 26 26
8 9 10 10 8 6 4 3 3 4 5 6 7 7 8 8 9 10 10 11 12 12 12 12 13 14 15 16 17 18 18 19 19 20 20 19 20 20 20 20 19 18 17 16 15 15 14 14 14 14 13 12 12 13 13 13 13 14 16 17 16 15 14 12 11 11 11 11 11 12 12 13 14 14 15 16 16 17 17 17 18 18 18 19 19 19 20 20 20 21 21 21 22 22 22 23 23 24 25 25 26 26 27
9 11 10 8 6 5 4 4 4 5 6 7 8 8 9 9 10 10 11 11 12 12 13 14 14 15 16 17 18 19 19 19 19 19 19 19 19 19 19 19 18 17 16 15 14 14 13 13 14 14 13 13 13 13 13 13 13 13 13 15 15 15 15 14 12 11 10 10 10 11 13 14 15 16 16 16 17 17 18 18 18 19 19 19 19 20 20 21 21 21 21 22 22 22 23 23 24 24 25 25 26 26 27
11 11 9 7 6 5 4 4 5 7 7 8 8 9 9 10 10 10 10 10 11 12 13 15 16 16 17 17 19 19 19 19 19 19 19 18 18 17 17 17 17 17 15 14 13 13 12 12 13 14 14 13 13 13 13 13 13 12 12 13 13 14 14 14 13 12 12 11 11 12 13 15 16 16 17 17 17 18 18 18 19 19 19 20 20 20 20 21 21 21 22 22 22 23 23 23 24 24 25 25 26 26 27
11 9 7 6 6 5 5 5 6 7 8 8 9 9 9 10 10 9 10 10 11 12 13 15 16 17 18 18 19 20 20 19 19 18 18 17 17 16 16 16 16 16 15 14 13 12 12 12 13 14 14 14 13 13 13 13 13 13 12 12 12 12 12 12 11 12 13 15 15 15 15 16 16 17 17 17 18 18 18 18 19 19 20 20 20 20 21 21 21 22 22 22 22 23 23 23 24 24 25 25 26 26 26
10 8 7 6 6 5 5 6 7 7 8 8 9 9 9 9 9 9 10 10 11 13 13 14 15 16 18 19 19 20 20 19 19 18 17 16 16 15 15 15 15 15 15 14 13 12 12 12 13 14 14 14 14 13 13 13 13 12 12 12 11 11 10 10 10 12 14 17 19 19 18 17 17 17 17 17 18 18 18 18 19 19 20 20 20 21 21 21 21 22 22 22 22 22 23 23 23 24 24 25 25 26 26
9 8 7 7 6 6 6 7 8 8 8 9 9 8 8 8 9 10 11 12 13 13 14 14 14 15 16 18 18 18 19 19 18 17 16 15 15 14 14 14 14 14 14 14 13 12 12 12 13 14 14 15 14 14 13 13 12 11 10 10 9 9 9 10 11 13 15 17 19 20 20 19 18 18 17 17 18 18 18 18 18 19 19 20 20 20 21 21 21 21 21 21 22 22 22 22 23 23 24 24 25 25 26
9 8 7 7 7 7 7 8 8 8 8 8 8 8 8 8 9 11 12 13 14 14 15 15 15 15 15 17 17 17 17 17 17 16 15 14 14 14 14 13 13 13 14 14 13 12 12 12 13 13 14 15 14 14 13 11 10 9 8 8 8 8 9 11 13 16 17 18 19 19 19 19 18 18 18 18 18 18 18 18 18 18 19 19 19 20 20 20 21 21 21 21 21 21 22 22 22 23 24 24 24 25 25
9 8 8 8 8 7 7 8 8 8 8 7 7 7 8 9 10 11 13 14 15 15 15 15 15 15 15 15 16 16 16 16 15 15 14 13 13 13 13 13 12 12 13 14 13 13 12 13 13 13 14 13 13 12 12 10 8 7 8 8 10 11 12 14 16 18 19 19 18 18 18 18 18 18 18 18 19 19 19 19 19 18 18 18 19 19 19 20 20 20 20 20 21 21 21 22 22 23 23 24 24 24 25
9 9 9 8 7 7 7 8 7 7 6 6 7 7 8 9 11 12 13 14 14 15 16 15 14 14 14 14 14 14 15 14 14 14 13 13 12 12 12 12 11 12 12 13 13 13 12 13 13 13 12 11 10 10 10 8 7 7 9 11 13 15 16 18 18 18 18 18 18 17 17 17 18 18 18 19 19 20 20 20 19 19 19 18 18 18 19 19 19 19 20 20 20 21 21 21 22 22 23 23 24 24 25
10 9 8 7 7 7 7 7 6 5 5 6 7 8 9 10 11 12 12 13 14 14 15 15 14 13 13 13 13 13 14 13 13 13 13 12 12 11 10 10 11 11 11 12 12 12 12 12 12 11 10 9 8 8 8 7 7 9 12 15 17 19 20 20 19 18 18 17 17 17 17 17 18 19 19 20 20 20 20 20 20 20 19 19 18 18 18 19 19 19 19 19 20 20 21 21 22 22 23 23 24 24 25
9 8 7 7 7 7 6 6 5 5 5 7 8 9 10 10 11 12 12 12 13 13 14 14 15 14 13 12 12 13 13 13 13 13 12 12 11 11 10 10 10 10 11 11 12 12 12 11 10 9 7 6 6 6 7 7 9 12 15 17 19 21 21 21 20 18 17 17 17 17 17 18 18 19 20 20 20 20 20 20 20 20 20 19 19 19 19 19 19 19 19 19 19 20 20 21 21 22 22 23 23 24 24
9 8 7 7 7 6 6 5 5 5 6 7 8 9 10 10 11 11 12 12 12 12 12 13 13 14 14 13 12 12 13 13 13 12 12 11 10 10 10 10 10 10 10 11 12 12 11 10 8 7 5 4 4 6 8 10 13 15 16 17 19 19 19 20 20 19 18 17 17 18 18 18 19 19 20 20 19 19 19 19 19 20 20 20 20 20 20 19 19 19 19 19 19 20 20 20 21 21 22 22 23 23 24
9 8 7 7 7 6 5 5 5 6 7 8 8 9 9 9 10 10 11 11 11 11 11 11 11 12 13 13 13 12 12 12 12 12 11 10 9 9 9 9 8 8 10 11 11 11 10 9 7 5 3 3 4 6 10 13 16 17 17 17 17 16 17 18 18 18 18 18 18 18 19 19 19 19 19 19 18 18 18 19 19 20 20 20 20 20 20 20 20 19 19 19 19 19 20 20 20 21 21 22 22 23 23
9 8 7 7 6 6 5 5 5 6 7 7 7 7 8 8 9 9 9 10 10 10 10 10 10 10 11 12 12 12 12 12 12 12 11 10 9 9 8 7 5 5 8 11 11 10 9 8 5 3 3 4 6 9 12 16 18 18 18 17 16 15 16 17 18 18 18 18 18 19 20 20 20 19 18 17 17 17 18 18 19 20 20 20 20 20 20 20 20 19 19 19 19 19 19 20 20 21 21 22 22 23 23
9 8 7 7 6 5 5 5 6 6 6 6 6 6 7 7 8 8 9 9 9 10 10 10 10 10 10 10 11 11 11 12 12 12 11 10 9 9 9 7 3 2 6 10 11 10 8 6 5 3 4 6 9 13 16 18 19 18 17 16 16 16 17 18 18 19 19 19 20 21 21 21 20 19 18 17 16 16 17 18 19 20 20 20 20 20 20 19 19 19 19 19 19 19 19 20 20 20 21 21 22 23 23
9 8 7 6 5 5 5 6 6 6 5 5 5 5 6 6 7 7 8 9 9 10 10 11 11 11 10 10 10 11 11 12 12 11 10 10 9 9 9 7 4 2 3 8 10 9 7 5 4 4 6 9 13 17 19 19 18 17 17 17 17 18 19 19 20 20 20 21 22 23 24 23 22 21 19 17 17 17 17 18 19 20 20 20 19 19 19 19 19 18 18 18 18 19 19 19 20 20 21 21 22 23 23
9 8 7 6 5 5 5 5 5 4 3 4 4 5 5 6 6 7 7 8 8 9 10 10 11 12 12 11 11 10 11 11 11 11 10 10 10 9 8 7 5 4 5 5 7 8 6 3 2 4 8 13 16 18 19 18 17 17 18 19 20 21 21 21 21 22 22 23 25 26 26 26 25 23 21 20 19 19 19 20 20 20 20 19 19 18 18 18 18 18 18 18 18 19 19 19 20 20 20 21 21 22 23
9 7 6 6 5 5 5 4 3 2 2 3 3 4 5 5 6 7 7 7 8 8 8 9 9 9 11 12 12 11 10 11 11 11 10 10 10 9 7 5 4 4 6 7 5 3 1 1 2 7 12 15 17 17 17 16 17 18 20 21 22 22 22 22 23 23 24 25 26 27 27 27 26 26 25 24 23 22 22 22 22 21 20 19 19 18 18 18 18 18 18 18 19 19 19 19 20 20 20 21 21 22 22
8 7 6 6 5 5 3 2 1 1 2 3 3 4 5 5 6 6 7 7 7 7 8 8 8 7 6 7 10 11 11 10 10 10 10 10 10 9 6 4 4 4 5 5 4 3 1 2 9 14 16 15 13 13 14 14 14 16 19 21 22 22 22 22 23 24 25 26 27 28 28 27 28 28 28 27 27 26 26 25 24 22 20 19 18 18 18 18 18 18 19 20 20 21 21 20 20 20 20 21 21 22 23
9 7 7 6 5 4 2 1 0 1 2 3 3 4 5 5 6 6 6 6 7 7 7 7 7 6 5 5 6 9 11 10 10 10 10 10 10 9 8 7 7 6 5 3 3 4 5 11 17 19 16 10 8 9 10 10 12 15 19 20 21 21 21 21 23 24 26 27 28 28 27 27 28 28 29 29 29 29 29 28 26 24 21 19 18 18 18 18 19 20 21 21 22 23 22 22 22 22 22 22 22 23 23
9 8 7 6 5 3 2 1 1 1 2 3 3 4 5 5 5 6 6 6 6 6 7 6 6 6 6 6 5 6 9 11 11 10 9 9 9 9 9 8 6 4 4 3 4 5 9 15 18 16 10 7 7 10 11 13 14 16 18 18 17 17 18 20 22 24 26 27 27 27 26 27 28 28 29 30 30 30 31 30 29 26 23 21 19 18 18 19 20 21 22 23 24 24 24 24 24 24 24 24 25 25 25
9 8 7 6 5 4 3 2 2 2 2 3 4 4 4 5 5 5 6 6 6 6 6 6 6 6 6 7 6 5 6 9 12 12 10 9 9 9 9 8 7 5 3 4 6 9 12 14 12 9 10 11 11 12 13 14 15 15 15 14 13 14 15 17 20 22 24 25 25 24 24 26 27 28 29 30 30 31 31 31 30 28 26 23 21 20 20 20 21 22 23 24 25 25 26 26 26 27 27 27 27 27 27
10 9 7 6 5 4 3 3 2 2 3 3 4 4 5 5 5 5 6 6 6 6 6 6 6 6 6 7 6 6 5 6 10 13 13 12 11 10 10 10 9 9 7 7 8 10 12 12 9 8 12 15 15 13 12 13 14 13 12 12 12 13 14 16 18 21 22 22 22 22 22 23 25 26 28 29 30 30 31 30 30 29 27 25 23 22 21 21 22 23 24 25 25 26 27 28 29 30 30 31 30 30 29
10 9 8 6 5 4 4 3 3 3 3 4 4 5 5 5 6 6 6 6 6 6 6 6 6 6 6 7 6 6 5 6 8 9 11 11 12 12 12 12 12 12 11 11 12 12 13 10 9 10 12 14 16 17 15 13 12 13 13 13 13 13 15 17 19 20 20 20 19 19 20 21 22 24 25 27 28 29 29 29 29 28 27 26 24 23 22 22 22 23 23 24 24 25 26 29 31 33 33 33 33 32 31
11 10 8 7 6 5 4 3 3 3 4 4 5 5 6 6 6 6 6 6 6 6 6 6 6 7 6 6 6 6 6 7 8 8 8 6 9 12 13 13 12 13 13 13 14 15 14 12 11 11 11 12 15 17 17 15 13 12 13 13 13 14 15 17 18 18 18 17 18 18 19 20 20 21 22 24 26 27 27 27 27 26 25 24 24 23 22 21 21 21 22 22 22 23 25 29 32 34 35 35 34 33 32
12 10 8 7 6 5 4 3 3 4 4 5 6 6 7 7 7 7 6 6 6 6 6 6 6 6 6 6 6 6 7 7 8 8 8 6 7 10 12 12 11 12 13 12 13 14 14 14 13 13 12 13 14 16 16 16 16 14 13 13 13 15 16 17 16 16 16 16 17 18 18 19 20 21 22 24 25 26 26 25 24 24 23 22 22 21 21 20 20 20 20 20 21 23 26 30 33 35 36 36 35 34 33
Wind_Direction
116 101 93 92 91 90 88 88 89 91 92 93 92 89 84 79 75 72 67 58 52 51 49 45 40 36 34 34 35 34 33 34 38 38 28 21 25 33 34 41 48 51 49 44 42 43 46 55 64 61 24 2 359 359 352 332 342 358 7 356 321 296 295 314 329 336 339 340 337 334 333 332 334 338 343 342 341 339 337 332 326 318 308 301 298 298 298 298 294 289 288 292 297 298 295 289 285 286 294 294 291 288 290
114 104 96 95 93 90 88 88 90 91 92 92 90 85 78 70 65 60 53 43 39 40 44 41 39 38 37 37 36 34 32 34 40 42 31 19 21 29 33 40 44 42 39 36 36 39 42 50 63 66 33 8 359 354 346 334 343 357 359 334 302 296 307 320 329 336 338 338 335 332 331 332 331 330 332 332 331 330 330 332 332 327 318 308 301 298 298 299 297 294 293 297 299 301 303 299 294 291 294 292 291 290 289
116 108 101 96 93 89 85 85 87 90 91 90 85 78 70 61 57 55 51 45 43 45 47 43 41 39 38 37 35 32 30 29 33 35 28 20 20 25 29 35 36 34 33 31 32 35 39 47 56 57 32 6 358 356 347 337 344 355 355 324 304 304 314 324 331 335 336 336 334 332 332 333 331 328 326 323 322 321 320 322 324 325 322 316 309 304 302 302 300 297 295 297 295 291 292 298 301 298 287 286 290 294 292
121 113 107 100 94 90 86 84 85 87 87 85 78 69 59 52 50 51 54 55 54 52 48 42 37 35 35 34 32 30 31 22 24 30 25 17 19 25 26 28 28 26 25 25 27 29 32 43 47 43 16 352 353 358 353 342 348 358 354 318 305 307 317 324 330 333 335 335 333 331 331 333 330 325 321 317 314 312 312 311 311 313 314 313 312 311 307 304 298 293 289 287 287 286 286 290 293 290 280 280 286 291 291
127 120 114 106 99 92 89 87 84 82 80 77 70 60 50 46 46 50 53 56 56 51 44 38 34 32 31 33 32 32 36 23 20 24 28 16 17 23 20 19 19 18 16 16 19 24 32 49 45 25 346 338 346 353 352 345 351 358 349 312 303 307 316 323 328 331 333 333 331 331 331 328 323 320 318 314 310 308 306 304 304 304 303 303 303 304 304 302 296 288 282 276 276 280 283 286 287 283 279 278 280 283 283
127 122 115 107 99 92 89 84 80 75 71 68 64 56 48 44 45 48 49 51 50 47 41 33 31 33 29 34 35 31 25 26 20 18 21 15 14 15 14 12 11 10 9 7 10 18 33 64 63 17 331 337 338 335 339 346 351 349 333 307 302 306 315 321 326 330 333 334 333 332 330 326 324 323 322 316 313 313 313 312 311 309 304 301 298 296 297 296 294 290 284 278 278 278 278 280 283 284 283 282 281 281 280
123 116 107 100 95 89 82 76 71 68 64 63 59 55 49 46 46 46 44 44 42 41 40 28 30 33 25 26 30 28 17 16 16 15 14 11 10 9 9 8 7 5 3 0 1 8 25 61 75 59 345 335 331 330 339 355 356 342 317 300 300 306 314 321 326 330 334 336 336 334 331 328 329 330 330 325 322 320 318 319 316 312 308 306 303 299 293 288 286 286 284 280 279 278 277 279 283 287 288 289 289 287 283
120 114 106 98 92 85 75 67 60 56 54 52 52 51 48 46 45 44 43 40 37 37 41 26 25 27 20 18 21 22 19 16 15 12 9 7 6 5 5 5 3 1 358 355 353 356 8 33 59 58 357 338 327 326 343 0 0 340 308 294 298 307 316 322 327 331 334 336 337 336 334 333 333 335 335 331 324 318 313 314 310 305 303 302 300 297 293 288 285 283 281 280 280 279 279 278 279 281 284 285 286 286 286
125 120 112 102 90 79 66 56 47 42 36 32 32 34 35 33 37 40 39 37 31 31 40 26 20 22 23 22 21 21 18 15 13 10 6 4 2 1 0 359 357 355 352 348 347 350 358 18 41 43 357 344 335 332 344 1 357 331 304 295 300 311 320 325 329 331 333 335 337 338 338 335 332 331 329 324 316 309 308 306 301 295 296 295 296 297 298 297 294 289 285 286 289 290 287 282 276 273 274 275 276 278 281
130 125 115 101 84 67 51 39 31 25 20 16 15 16 18 20 28 37 42 42 31 22 30 24 18 21 25 24 21 19 16 13 11 7 4 1 358 356 353 352 350 348 346 344 345 351 2 22 38 36 356 350 341 337 345 352 347 318 298 300 309 318 325 329 331 332 334 335 337 338 338 335 330 324 318 314 307 302 300 296 293 293 297 295 298 304 309 307 302 298 297 298 299 300 300 293 284 278 278 278 276 276 276
136 126 113 93 71 49 34 23 16 10 9 8 9 10 13 16 22 32 43 46 37 25 26 30 26 23 23 20 17 14 11 9 6 3 0 357 354 351 348 346 345 344 343 346 351 2 17 34 36 24 360 354 343 338 352 349 325 306 303 311 320 326 330 331 332 333 333 333 334 333 332 329 324 319 312 310 308 304 299 295 294 296 298 296 299 304 307 304 301 299 301 302 302 301 302 299 298 300 299 298 294 288 283
143 130 107 78 50 29 17 10 3 1 359 360 4 11 16 19 22 29 36 37 34 31 30 30 27 23 19 14 11 7 4 0 358 356 354 352 350 348 346 346 346 346 349 355 6 19 32 38 30 8 5 3 348 339 347 350 317 303 313 322 328 330 331 332 333 333 332 330 329 328 326 323 320 317 315 312 309 306 303 302 302 302 299 299 301 303 304 303 303 305 306 307 305 303 302 299 297 296 297 302 304 301 294
155 138 99 46 21 6 360 357 355 354 355 357 3 11 20 24 26 29 32 33 32 30 29 26 23 19 14 9 3 359 354 351 348 347 347 349 350 351 353 355 356 358 3 13 24 32 38 33 17 3 4 8 352 338 337 333 317 314 325 328 329 330 331 332 333 332 330 328 326 324 321 320 318 317 315 312 308 305 304 305 305 304 302 302 303 304 304 304 306 310 311 310 307 305 305 303 300 296 293 290 288 289 291
173 169 348 345 344 344 344 346 349 351 353 357 4 14 23 27 28 26 27 27 26 26 24 23 19 15 9 3 357 352 348 345 343 342 345 351 358 4 8 10 11 14 20 32 36 34 27 14 1 353 346 353 344 333 328 318 317 322 325 325 326 327 329 330 331 330 329 328 326 323 321 320 318 317 315 312 308 306 305 305 305 304 303 302 301 300 299 301 304 309 310 308 305 304 306 306 306 304 301 296 292 290 291
205 232 280 309 322 328 333 338 342 346 352 359 8 17 24 27 26 24 22 21 21 21 20 18 14 8 1 355 352 350 349 347 346 345 350 360 11 18 21 22 23 25 32 42 40 25 3 358 347 338 335 334 330 324 318 313 316 321 322 322 322 324 325 327 328 329 329 328 327 325 323 321 319 316 314 310 307 306 305 305 304 303 302 301 299 296 295 297 301 305 305 303 302 302 304 305 306 306 304 302 300 298 296
227 253 280 300 311 319 325 329 335 340 349 3 14 20 23 24 23 21 18 18 18 17 14 10 2 356 351 348 348 351 356 358 357 356 359 8 17 22 25 26 26 28 34 41 34 10 3 351 340 336 338 334 329 321 312 311 317 321 320 320 321 322 323 325 326 327 328 328 327 326 324 321 318 316 314 310 307 305 303 302 302 302 302 301 299 297 296 298 300 302 301 300 299 300 300 301 302 302 301 301 300 299 298
233 256 278 295 305 312 317 322 326 332 343 4 17 21 22 20 18 16 14 14 13 11 5 355 347 342 342 344 349 357 3 1 360 0 3 9 13 17 19 21 22 25 28 27 22 11 359 341 335 335 339 338 332 321 310 313 319 321 320 320 321 322 323 324 325 326 327 326 326 325 323 319 317 315 313 310 308 305 303 302 301 301 302 301 299 297 297 298 298 298 298 298 297 297 298 298 298 297 297 297 297 297 297
235 259 280 293 301 305 308 313 316 322 333 359 14 18 16 13 9 8 7 6 5 360 352 344 338 336 338 345 360 10 7 358 352 350 352 359 5 8 9 11 13 17 18 7 1 359 349 336 332 333 337 340 332 316 308 314 320 322 321 321 321 321 322 323 324 325 325 323 322 320 317 313 312 311 309 308 307 306 305 303 303 303 303 299 297 297 297 296 295 294 295 295 295 296 295 295 295 294 294 294 294 294 295
246 268 286 294 297 298 299 302 305 307 317 347 6 12 10 4 360 357 356 354 351 347 344 344 344 343 345 355 13 21 3 353 346 344 347 350 354 359 2 2 3 4 3 352 347 346 340 332 330 331 332 337 325 307 306 315 321 322 321 320 320 321 321 322 323 322 320 318 316 312 308 307 306 304 303 302 304 306 306 304 304 305 302 298 297 297 296 295 295 295 294 294 294 294 293 292 292 292 292 293 293 294 295
270 293 303 302 298 294 292 295 296 297 308 342 6 11 6 357 350 344 341 340 336 334 338 347 354 357 359 6 11 6 339 340 343 345 348 348 348 349 353 353 352 350 349 344 341 338 334 331 330 329 328 333 317 302 307 316 321 321 320 319 319 319 320 320 320 318 315 312 309 306 304 302 300 298 297 296 298 302 304 303 303 303 299 297 297 298 298 298 298 297 296 294 293 292 291 290 290 290 290 292 293 295 296
312 330 325 317 307 298 295 299 302 307 322 355 8 6 1 351 339 331 327 330 328 327 333 350 1 6 6 4 355 344 342 343 345 346 347 346 342 340 343 343 343 343 342 340 336 334 332 330 329 328 326 327 309 300 309 317 320 319 318 318 318 318 318 318 317 314 310 308 306 303 300 297 294 292 291 289 291 295 299 298 296 295 295 294 295 298 301 303 303 301 298 295 294 292 292 291 291 290 290 291 292 294 295
13 349 333 324 314 308 306 312 316 321 335 359 8 2 349 340 333 328 328 333 330 326 332 349 357 359 356 351 343 339 342 345 347 346 341 341 337 335 337 338 340 340 339 336 333 331 330 328 327 326 326 321 305 301 311 317 318 317 316 316 316 316 316 316 314 311 308 306 303 300 296 293 290 288 286 284 282 282 286 286 283 281 284 286 289 294 302 308 309 305 300 297 294 293 293 293 293 293 292 292 292 293 294
97 125 305 302 306 311 316 324 324 322 335 5 28 28 345 331 330 333 339 342 334 330 335 343 342 338 340 337 335 335 338 341 344 342 337 336 335 335 335 336 338 337 334 332 330 329 327 326 324 324 324 317 307 306 312 315 316 315 315 315 315 315 315 314 312 309 306 303 300 297 294 291 287 285 284 280 274 267 269 270 270 270 273 277 280 285 291 297 302 303 300 297 294 293 293 293 293 294 294 294 294 294 295
158 174 191 208 261 297 316 333 325 322 336 12 54 101 213 305 320 328 338 343 337 333 337 333 329 329 330 327 326 329 334 337 340 341 338 336 335 335 334 334 334 333 330 328 327 326 325 324 322 323 323 315 308 308 312 314 315 314 314 314 314 314 314 313 311 307 304 301 298 295 292 288 285 285 283 279 269 260 258 261 263 263 263 268 273 276 276 276 281 287 290 291 291 291 291 291 291 291 291 292 293 294 295
168 177 185 186 200 226 225 218 225 253 310 19 142 174 220 260 288 312 330 336 334 329 325 322 324 328 326 321 320 324 332 336 338 340 340 337 335 333 332 331 330 328 327 325 324 323 323 322 322 322 322 315 309 308 311 313 314 315 314 314 314 313 313 312 309 306 302 299 296 294 290 287 286 285 283 279 270 260 254 258 261 260 258 262 269 274 271 270 271 275 280 283 285 286 287 287 286 285 286 287 289 290 291
180 182 184 180 180 193 212 214 216 219 219 212 197 200 236 270 290 310 326 330 328 323 320 322 325 327 325 322 321 324 331 334 336 336 337 336 334 332 330 328 326 325 324 322 322 321 321 322 322 322 321 315 309 308 311 313 315 315 315 314 314 314 313 311 309 305 301 298 295 293 290 288 288 286 284 281 274 264 255 261 263 260 258 262 268 271 269 268 269 271 274 278 281 282 283 283 282 281 282 283 283 284 285
193 193 188 185 190 202 213 222 228 229 224 215 209 217 248 279 296 312 322 325 322 320 319 321 324 325 325 323 323 325 329 331 332 332 332 332 331 329 328 325 324 323 322 321 320 320 320 321 321 321 319 313 308 307 310 313 315 315 315 314 314 314 313 311 308 304 300 297 294 293 291 289 288 287 285 281 275 265 254 261 265 264 262 265 268 270 270 269 268 270 273 275 278 280 281 281 281 280 280 280 280 280 281
204 202 192 192 200 211 218 232 235 229 217 211 218 238 262 283 298 310 318 317 315 314 315 316 319 321 322 322 322 324 326 328 328 328 328 327 327 326 325 323 322 321 320 320 319 319 319 319 320 319 315 311 306 305 308 311 314 315 315 315 314 313 312 310 307 303 299 296 294 292 291 290 288 287 285 278 273 267 260 260 263 266 268 268 270 272 272 272 271 272 273 274 275 277 279 279 279 279 279 278 279 279 280
212 206 193 194 206 220 229 235 231 219 207 214 235 258 277 291 301 309 311 309 308 310 311 312 314 317 319 320 321 322 325 326 326 326 325 325 324 323 323 322 320 320 319 318 318 318 318 318 318 315 311 308 305 303 305 309 313 315 315 315 314 313 312 310 307 303 299 296 294 293 292 291 290 288 286 280 275 273 271 269 269 270 271 271 273 274 275 275 275 274 274 274 275 276 278 278 279 279 279 280 280 280 280
217 207 189 190 206 223 230 229 221 211 207 221 245 266 284 298 303 305 306 306 308 310 310 312 314 317 318 319 320 321 324 325 324 323 322 321 321 321 321 320 319 319 318 317 316 316 316 316 315 313 310 306 302 300 302 307 311 314 315 315 315 313 312 310 307 304 300 297 295 294 293 292 292 291 288 284 280 277 276 276 276 276 277 278 278 279 280 280 280 279 279 278 278 279 279 280 280 281 281 281 281 280 280
217 205 187 189 207 220 222 217 210 208 211 225 248 269 285 297 301 303 305 307 308 310 310 313 315 317 318 319 320 321 322 322 321 320 319 319 319 319 319 319 318 318 317 317 316 315 316 316 315 313 311 308 301 297 300 305 310 314 317 317 315 314 312 311 308 305 302 298 296 295 294 294 294 293 291 288 284 281 278 278 279 281 284 286 286 286 285 286 286 285 284 284 283 283 283 283 282 282 282 281 281 281 282
214 203 189 198 211 217 213 208 205 208 213 230 258 279 292 299 302 304 307 308 308 308 309 311 313 315 317 318 318 319 320 320 319 318 318 317 317 318 319 319 318 318 318 317 316 316 316 317 317 315 312 309 306 302 302 305 309 314 318 319 316 314 312 311 309 307 303 301 298 297 296 296 296 295 293 291 288 285 283 284 286 289 292 293 292 290 290 291 290 290 289 289 288 287 287 286 285 285 284 284 284 285 285
207 195 194 207 215 216 211 210 210 212 221 250 281 296 302 305 306 307 306 306 306 306 307 308 310 312 314 315 316 317 317 317 317 318 317 317 318 318 319 319 318 318 319 318 316 315 317 318 317 315 313 311 307 303 300 299 304 311 317 318 317 314 313 311 310 307 305 303 300 299 298 298 298 298 297 296 294 292 291 293 295 297 297 296 295 293 293 294 293 294 293 293 292 292 291 290 289 288 288 288 288 288 288
198 190 200 211 216 215 214 217 225 241 272 299 309 311 309 308 307 306 304 303 303 303 304 306 309 311 312 312 313 315 316 316 317 317 318 317 318 318 319 319 319 319 319 318 315 314 316 316 316 314 313 311 305 294 285 285 296 306 313 315 315 313 312 311 310 308 306 304 302 301 301 301 301 302 302 301 299 298 299 299 300 301 300 299 297 296 296 296 296 296 296 296 295 295 294 293 292 291 291 291 291 290 290
191 192 206 214 217 217 220 229 249 282 310 321 321 317 312 308 305 303 302 302 302 302 304 307 310 311 312 312 312 313 315 316 317 318 318 318 318 318 318 318 318 319 319 318 315 314 315 314 313 312 312 310 305 298 292 292 297 304 310 313 313 312 311 310 308 307 305 304 303 303 303 304 304 305 305 304 303 302 302 302 302 302 302 301 300 299 299 298 298 298 298 297 297 296 296 295 295 294 294 293 293 293 293
192 199 212 217 219 223 234 252 282 310 321 323 320 316 310 304 301 300 300 301 302 303 306 309 311 311 311 311 312 313 315 317 318 318 318 318 317 317 317 317 318 319 319 318 316 316 315 312 310 310 310 308 306 304 304 304 304 306 308 311 313 312 310 309 307 305 303 302 302 304 305 306 306 306 306 306 305 304 304 304 303 303 303 302 302 301 301 301 301 300 300 299 299 298 297 297 296 296 296 295 295 295 294
202 210 215 216 220 231 249 277 308 323 324 323 318 312 305 300 297 297 298 300 301 305 308 309 310 310 310 310 312 314 316 317 318 318 318 318 318 318 317 316 317 318 318 318 317 316 314 309 307 307 308 308 308 307 307 308 308 307 306 308 311 311 310 310 309 306 302 299 300 303 306 307 307 307 307 307 306 306 305 305 305 304 304 304 303 303 302 302 302 302 301 300 300 299 299 298 297 297 296 296 295 295 294
211 215 214 215 224 239 260 291 316 325 324 320 314 306 298 295 293 294 295 297 301 305 308 310 310 311 311 312 313 315 316 318 319 319 319 319 319 318 316 316 317 317 318 318 317 316 313 307 305 306 309 310 309 308 309 309 309 307 304 303 304 305 306 308 309 309 307 303 302 303 306 308 308 309 308 308 307 307 307 306 306 305 305 304 303 303 302 302 302 301 301 300 300 299 298 298 297 297 296 295 295 294 294
216 217 215 219 230 246 269 298 315 319 318 312 306 299 294 291 291 292 294 297 302 306 308 309 311 313 314 315 316 317 318 319 321 321 321 320 320 318 316 316 316 316 317 318 318 316 314 308 306 307 309 311 311 310 309 309 309 307 304 301 299 299 301 305 308 310 311 311 309 308 309 310 310 309 309 308 308 308 307 306 306 305 304 304 303 302 301 301 300 300 299 299 299 298 298 297 296 296 295 294 294 294 294
216 218 220 227 236 252 276 297 305 306 304 300 296 293 290 289 289 292 296 301 304 306 308 309 311 313 314 317 318 319 319 321 323 323 323 322 321 319 318 317 316 316 317 319 320 318 315 310 307 307 309 311 312 311 309 308 308 307 304 301 299 300 302 304 306 309 311 313 312 312 311 311 310 309 308 307 307 306 305 305 304 303 303 302 301 301 300 300 299 298 298 298 297 297 296 296 296 295 294 294 294 294 294
214 217 224 231 240 253 273 287 292 291 289 289 288 287 286 287 290 295 301 306 307 308 309 311 312 312 313 315 318 319 320 322 323 325 325 324 322 320 319 318 317 316 317 320 321 319 315 311 306 305 306 310 311 309 308 308 308 307 305 303 302 304 305 305 306 308 310 311 311 311 311 311 310 309 308 307 305 304 303 302 301 301 300 300 299 299 299 298 298 297 297 297 296 296 296 295 295 294 294 294 294 294 294
212 217 224 232 239 252 269 278 280 280 280 281 282 282 284 289 295 301 306 308 309 310 311 312 313 314 314 315 317 318 320 322 324 325 326 325 323 322 321 320 319 318 318 321 322 319 315 310 306 304 306 308 309 308 309 310 311 311 309 308 309 310 309 308 307 308 308 309 309 310 310 310 310 309 308 307 305 304 302 301 300 299 298 298 298 298 297 297 297 297 297 296 296 296 295 295 294 294 293 294 294 294 294
212 217 223 230 240 254 267 271 271 272 274 276 278 282 288 295 301 305 308 309 311 311 312 314 315 316 317 318 319 320 321 323 325 326 327 327 325 323 322 321 321 320 319 321 322 320 315 310 306 305 306 306 307 309 311 315 317 317 315 314 314 313 311 308 307 308 308 308 308 309 309 310 310 310 309 308 307 305 303 302 301 299 298 298 297 297 297 297 297 297 297 296 296 296 295 295 294 294 293 293 293 293 293
213 218 222 230 242 254 260 261 262 265 269 273 280 288 295 300 304 306 308 310 312 314 314 316 317 319 320 321 321 322 324 325 326 328 329 328 327 324 322 322 323 323 322 322 322 320 315 309 307 306 304 304 305 308 312 318 323 324 321 317 314 312 310 309 308 308 308 309 309 309 310 311 311 310 310 309 308 307 306 305 303 302 300 299 299 298 298 297 297 297 297 297 296 296 295 295 294 294 293 293 293 293 292
218 218 220 229 241 248 250 251 253 258 267 277 286 293 299 303 305 308 310 312 314 316 318 319 321 322 324 325 325 326 327 328 329 330 330 329 327 326 325 325 326 326 326 325 323 320 315 310 307 305 302 302 304 307 311 317 323 324 321 318 315 313 312 310 310 310 310 311 311 311 311 312 312 311 311 311 310 309 308 307 306 304 303 302 301 300 299 298 298 298 297 297 296 296 295 294 294 293 293 293 292 292 292
219 216 219 228 236 240 240 240 245 258 273 283 291 297 302 306 308 310 312 314 317 319 321 323 324 326 328 330 330 330 331 331 331 332 332 332 332 333 333 333 330 329 330 330 328 323 318 313 308 305 304 305 306 308 309 314 319 321 321 319 317 316 315 314 313 313 313 312 312 312 312 312 312 312 312 311 311 310 309 308 307 306 305 304 303 302 301 300 299 299 298 298 297 296 295 294 293 293 293 293 292 292 292
215 214 218 225 229 230 230 235 248 266 279 287 294 301 306 309 312 314 316 317 319 321 324 326 328 330 331 333 335 335 334 334 334 334 334 337 341 342 339 337 333 330 330 334 333 328 322 316 311 307 308 312 312 311 310 312 316 319 320 318 316 316 315 314 314 313 313 312 311 311 311 311 311 312 312 311 310 310 309 308 308 308 307 306 306 304 303 302 301 300 300 299 297 296 295 294 294 293 293 293 293 292 292
210 211 216 219 220 221 226 239 258 273 281 289 297 304 309 312 315 316 318 319 321 323 326 329 331 333 334 335 336 337 337 336 336 337 340 347 349 346 341 340 336 328 326 333 336 332 325 318 312 308 307 312 314 313 312 313 314 315 314 312 311 311 309 309 309 310 310 309 309 309 309 310 311 312 312 311 311 310 309 309 309 309 308 308 307 306 305 304 303 302 301 300 299 298 297 296 295 295 295 294 294 294 293
208 208 210 212 213 218 230 249 266 275 282 290 298 305 310 313 316 317 318 320 322 325 329 332 334 335 334 335 336 338 339 340 339 341 346 354 354 349 346 350 342 315 310 325 332 333 325 317 308 297 291 301 309 310 310 310 310 310 308 308 308 307 306 306 306 306 307 308 308 309 310 311 312 313 314 313 312 311 311 311 310 310 309 309 308 307 306 305 304 304 303 302 301 300 299 298 298 298 297 296 296 296 295
205 203 204 205 210 222 240 257 268 275 283 292 301 308 314 318 319 320 322 324 327 331 334 335 336 336 337 338 339 341 343 343 344 347 354 358 358 357 358 4 359 293 287 312 323 329 325 313 299 287 291 301 306 307 307 306 306 306 306 307 309 310 310 309 308 308 309 310 312 313 314 315 316 317 317 316 314 314 314 314 314 313 311 310 309 307 307 306 305 305 305 304 303 302 301 301 300 300 299 299 298 297 297
197 197 199 203 214 231 248 260 268 276 286 298 308 316 321 323 324 326 329 333 336 338 339 339 338 336 338 342 345 346 348 347 348 353 2 3 1 1 4 7 357 302 288 302 311 319 324 313 301 296 296 301 304 305 305 305 306 308 309 311 314 315 316 314 313 313 315 316 318 319 320 320 321 321 321 320 318 318 319 319 319 317 315 312 310 309 307 306 306 306 305 305 304 303 303 302 302 301 300 299 298 298 297
189 192 197 207 222 238 251 259 266 277 295 311 321 326 328 329 332 334 337 341 342 343 343 344 344 342 339 342 347 351 353 353 353 356 3 4 3 4 9 8 348 313 319 299 293 301 322 342 326 293 291 298 302 304 305 309 312 313 314 317 319 320 320 319 318 319 320 321 322 323 323 324 324 324 324 324 323 323 324 324 324 322 319 315 312 310 309 308 307 306 306 306 305 304 303 303 302 301 300 299 298 297 296
183 189 199 213 227 238 246 251 263 290 317 329 332 335 336 338 341 342 344 346 345 345 345 347 354 356 349 343 343 349 355 358 359 359 1 3 6 10 14 8 341 317 322 313 289 260 277 129 233 267 287 300 305 307 310 316 318 317 317 318 320 322 322 321 321 322 322 323 324 324 324 325 325 325 326 326 326 326 327 327 327 326 323 319 315 312 310 309 308 308 307 307 306 305 304 304 303 302 300 299 298 297 295
181 190 203 216 224 229 229 231 259 333 346 345 345 345 346 348 350 351 350 349 348 347 348 348 354 3 8 347 340 343 350 359 3 4 4 3 9 18 25 11 338 319 321 318 298 258 212 291 290 293 302 309 311 313 316 320 317 313 313 316 319 321 322 321 321 321 322 322 323 324 324 324 325 326 326 326 327 327 327 328 328 328 325 321 317 314 312 310 309 309 310 310 310 309 308 307 306 305 304 302 300 298 296
183 193 205 211 211 206 193 168 84 27 10 1 357 356 357 358 358 356 354 351 349 348 349 350 352 356 2 356 345 341 344 353 2 6 7 5 8 16 24 15 360 343 322 311 299 299 308 305 304 307 315 318 315 313 311 308 302 302 306 312 318 321 321 320 319 319 320 321 323 323 323 323 323 324 324 325 326 326 327 327 328 328 327 323 319 315 312 311 311 312 313 314 314 313 312 311 310 309 308 307 304 301 298
186 193 199 198 190 176 154 124 88 52 30 16 11 9 8 7 4 360 356 353 351 350 350 351 352 353 354 1 3 353 344 345 352 0 4 7 10 12 13 21 23 9 341 325 317 311 305 307 315 321 319 310 302 301 300 296 296 299 306 314 319 320 318 315 314 315 317 320 321 321 321 321 321 321 321 323 324 325 326 326 327 327 327 324 320 317 314 313 313 315 315 316 316 315 314 313 313 313 313 312 309 305 301
186 189 189 183 171 155 137 116 90 64 42 30 22 18 15 11 8 4 360 357 355 353 352 352 353 353 354 356 6 12 356 345 346 350 356 2 9 11 10 14 18 17 357 335 315 310 314 325 327 319 307 306 305 303 302 303 304 307 311 313 313 310 308 307 308 310 313 315 317 317 317 317 317 318 319 321 322 323 324 324 324 324 324 324 322 319 317 316 316 316 317 317 317 316 315 314 315 316 316 315 313 309 305
184 182 179 171 159 145 132 115 90 65 50 37 30 24 19 16 12 8 4 0 358 356 353 353 354 355 354 354 1 11 10 355 351 351 349 354 360 3 2 1 359 357 353 334 323 324 330 337 331 312 311 314 314 312 310 311 312 312 309 305 302 300 299 299 301 304 307 310 311 311 312 312 313 314 316 318 319 320 321 320 320 320 321 322 322 321 320 319 318 318 318 317 317 316 315 315 315 317 318 317 315 311 307
179 176 172 165 154 142 129 112 90 69 53 42 34 28 23 18 14 9 5 2 359 356 355 355 354 354 354 354 359 6 7 2 4 4 357 351 350 354 357 357 356 355 352 347 343 342 340 337 327 319 319 319 317 317 318 316 314 311 307 303 301 300 298 298 300 303 305 306 307 306 306 307 307 309 311 313 315 316 316 316 316 317 318 320 321 321 321 320 319 317 316 316 315 314 312 311 313 315 317 317 315 312 309
175 172 169 162 151 139 127 110 89 70 54 44 37 30 24 19 14 9 6 3 360 358 357 356 354 352 353 355 358 360 1 358 1 9 16 360 345 347 356 360 358 353 351 348 345 344 342 337 331 327 325 318 315 316 317 317 315 312 308 305 303 302 301 301 303 305 305 305 304 303 303 303 303 303 304 306 308 309 310 311 312 313 315 316 318 318 318 317 315 313 312 312 310 307 304 305 309 312 315 316 315 313 311
172 170 168 160 149 137 125 108 88 69 55 44 37 30 24 19 13 9 6 3 360 357 356 354 353 352 352 354 355 355 354 357 358 360 4 5 353 349 356 360 357 353 352 349 344 340 338 336 334 330 326 320 315 312 310 312 315 315 310 307 304 302 303 304 305 305 303 301 301 300 300 300 300 300 301 303 304 305 306 307 308 309 310 311 312 312 312 310 308 307 306 304 301 298 298 301 306 310 313 314 315 315 313